CZ-6A R/B, 64288

Orbit data source: Space-Track

CZ-6A R/B, 64288 is space debris in LEO originally from a launch on Thu, 05 Jun 2025 UTC launched from the Taiyaun Space Center, China (TSC). Debris objects in space refer to the collection of defunct objects orbiting the Earth. Examples of debris include non-operational satellites, rocket bodies, and fragments generated from explosions, collisions, or faulty payload assembly.

Loading next visibility...
Identifier
64288, 2025-121F
Orbit
LEO
Country
Flag of CNCN / PRC
Related business
Manufacturer
SAST
Mission
Spacecraft
Bus & Motor
CZ-6A STAGE 2, YF-115
Mass
~6,000 kg wet, ~6,000 kg dry
Launch date (UTC)
2025-06-05 (1 year ago)
Launch vehicle
Unknown
Launch site
Taiyaun Space Center, China (TSC)
Object type
Payload
Rocket body
Debris
Shape & HBR
Unknown shape, 5.5 m
Radar Cross Section
Large (>1 m²)

Expand to show TLE details & history
Last TLE update: 9 hours ago

TLE from 9 hours ago
0 CZ-6A R/B
1 64288U 25121F   26144.91502229  .00000106  00000-0  63100-4 0  9997
2 64288  86.5094   8.6944 0104064 115.0493 246.1527 13.94068614 49193
Epoch: 2026-05-24T21:57Z
TLE epoch observation values (Epoch: 2026-05-24T21:57:37.925Z)
Latitude
-0.00008°
Longitude
156.77605°
Altitude
948.748 km
Speed
7.361 km/s
True Right ascension
00h 34m 46s
True Declination
0° 00' 00"
Sunlit
Object was in daylight at epoch
Visualization orbit readout
Latitude
Unknown
Longitude
Unknown
Altitude
Unknown
Speed
Unknown
Apparent Right ascension
Unknown
Apparent Declination
Unknown
Sunlit
N/A
Visualization observer readout
Local Sidereal Time
16:37:14
Azimuth
Unknown
Elevation
Unknown
Doppler factor
Unknown
Orbital elements
Apogee altitude
987.284 km
Perigee altitude
835.568 km
Semi-major axis
7,289.563 km
Eccentricity
0.01041
Inclination
86.5094°
RAAN
8.6944°
Arg. of periapsis
115.0493°
True anomaly
245.06779°
Mean anomaly
246.1527°
Eccentric anomaly
245.60967°
Mean motion
3.48731 °/min
Orbital period
103.23 mins
BSTAR
0.0000631
Loading maneuver chart data...
Computing Atmospheric mass density...
Loading historical data...
Loading historical data...
Loading historical data...
Loading historical data...
Loading historical data...
Loading historical data...
Loading historical data...

Documentation

Showing up to 5 results
|